Location: Unspecified
(47.9110°N, 14.3980°E)
Time: 20:41:58
(UTC+00:00)

Okean 1-7 - Pass Details

Date: 06 August 2020
Orbit: 590 x 619 km, 82.5° (Epoch: 21 September)

Event Time Altitude Azimuth Distance (km) Brightness Sun altitude
Rises 20:35:29 0° 357° (N) 2,888 7.4 -17.2°
Reaches altitude 10° 20:37:54 10° 7° (N) 1,973 6.3 -17.5°
Maximum altitude 20:41:53 34° 73° (ENE) 1,011 3.9 -17.9°
Enters shadow 20:42:55 30° 102° (ESE) 1,098 3.9 -18.0°
